Regional Weather Roundup
Issued by NWS Lake Charles, LA

Home | Current Version | Previous Version | Text Only | Print | Product List | Glossary On
Versions: 1 2 3 4 5 6 7 8 9 10 11 12 13 14 15 16 17 18 19 20 21 22 23 24 25 26 27 28 29 30 31 32 33 34 35 36 37 38 39 40 41 42 43 44 45 46 47 48 49 50
000
ASUS44 KLCH 300310
RWRLCH
RWRLCH
REGIONAL WEATHER ROUNDUP
NATIONAL WEATHER SERVICE LAKE CHARLES LA
900 PM CST THU JAN 29 2015

Note: "fair" indicates few or no clouds below 12,000 feet with no
significant weather and/or obstructions to visibility.


ACROSS SOUTHEAST TEXAS

CITY           SKY/WX    TMP DP  RH WIND       PRES   REMARKS
BEAUMONT       PTCLDY    59  58  96 W5        30.26R
BEAUMONT CITY  MOCLDY    61  59  95 CALM      30.27R
ORANGE         PTCLDY    64  60  88 SW3       30.28R
JASPER         MOCLDY    58  51  78 N8        30.31R
$$

ACROSS CENTRAL LOUISIANA

CITY           SKY/WX    TMP DP  RH WIND       PRES   REMARKS
LEESVILLE      CLEAR     60  52  75 N9        30.26R
FULLERTON        N/A     62  51  67 CALM      30.24R
ALEXANDRIA INT PTCLDY    64  46  52 N10       30.24R
ESLER FIELD    PTCLDY    64  48  56 NW7       30.26R
DERIDDER         N/A     59  50  71 CALM      30.27S
OAKDALE        CLEAR     50  49  95 CALM      30.25S FOG
OPELOUSAS        N/A     58  55  91 CALM      30.24S
$$

ACROSS SOUTHWEST AND SOUTH CENTRAL LOUISIANA

CITY           SKY/WX    TMP DP  RH WIND       PRES   REMARKS
SULPHUR        PTCLDY    61  60  94 W3        30.27R
LAKE CHARLES   PTCLDY    61  58  90 W3        30.25R
CHENNAULT INT  PTCLDY    64  59  86 W6        30.25S
CAMERON PHI    PTCLDY    61  59  94 W6        30.29R
DEQUINCY         N/A     56  55  97 CALM      30.26R
JENNINGS         N/A     59  57  94 CALM      30.25R
LAFAYETTE      CLEAR     63  57  81 W7        30.25R
NEW IBERIA     PTCLDY    62  57  83 W5        30.25R
ABBEVILLE        N/A     60  57  91 W6        30.25S
PATTERSON      CLEAR     55  54  94 SW3       30.26S
SALT POINT       N/A     55  54  96 SW3       30.24S
$$

SELECTED SITES ACROSS THE REGION

CITY           SKY/WX    TMP DP  RH WIND       PRES   REMARKS
HOUSTON BUSH   PTCLDY    63  55  75 CALM      30.27R
HOUSTON HOBBY  MOCLDY    64  56  75 S3        30.27R
GALVESTON      CLEAR     62  60  93 S3        30.28R
COLLEGE STAT   MOCLDY    64  40  41 N16G23    30.32R
CONROE         MOCLDY    57  53  86 NW6       30.30R
HUNTSVILLE     MOCLDY    63  42  46 VRB6      30.31R
LUFKIN         MOCLDY    66  39  37 N9G16     30.31R
SHREVEPORT     CLOUDY    56  39  53 N20G25    30.35R
MONROE         PTCLDY    59  41  51 N18G25    30.32R
NATCHEZ MS     PTCLDY    63  48  59 N16G26    30.26R
BATON ROUGE    PTCLDY    62  51  67 W5        30.23R
N.O. INTL ARPT PTCLDY    62  55  77 SW6       30.22S
SLIDELL        PTCLDY    58  53  84 CALM      30.21R
$$

MARINE REPORTS

STATION/POSITION TIME  TEMP    WIND        PRES    VSBY  WAVE
                       AIR SEA DIR/SP/G                  HT/PER
                 (UTC) (F)     (DEG/KT/KT) (MB)    (MI)  (FT/S)
BUOY 30 S HIGH I 0300   61 60  210/  4/  4 1024.7R         1/ 4
SEA RIM ST PARK  0300   60     260/  5/  5 1025.4R
PORT ARTHUR      0300      54  230/  6/  8 1024.9R
SABINE PASS N    0300   59 56  250/  2/  3 1024.8S
TEXAS POINT      NOT AVBL
CALCASIEU PASS   0300   60 57  270/  7/  9   N/A
LK CHARLES BEACH 0300   63 58              1024.6R
MARSH ISLAND     0200   62     260/  7/  9   N/A
FRESH WATER LOCK 0300   60 58  230/  4/  5 1024.4R
AMERADA PASS     0300   60 51  240/  2/  4 1024.3R
$$



USA.gov is the U.S. government's official web portal to all federal, state and local government web resources and services.